Location: Jackson Park
(37.2862°N, 79.9123°W)
Time: 20:40:13
(UTC+00:00)

S-56A Canister/Altair - Pass Details

Date: 15 May 2026
Orbit: 633 x 2484 km, 38.9° (Epoch: 6 June)

Event Time Altitude Azimuth Distance (km) Brightness Sun altitude
Rises 08:32:25 0° 274° (W) 3,531 - -17.3°
Reaches altitude 10° 08:35:25 10° 257° (WSW) 2,824 - -16.8°
Maximum altitude 08:40:13 20° 212° (SSW) 2,547 - -16.1°
Exits shadow 08:40:20 20° 211° (SSW) 2,556 9.6 -16.1°
Drops below altitude 10° 08:46:23 10° 170° (S) 3,741 10.7 -15.1°
Sets 08:51:13 0° 156° (SSE) 5,104 11.6 -14.4°
